Time,TemperatureF,DewpointF,PressureIn,WindDirection,WindDirectionDegrees,WindSpeedMPH,WindSpeedGustMPH,Humidity,HourlyPrecipIn,Conditions,Clouds,dailyrainin,SoftwareType,DateUTC
2013-02-16 00:01:00,63.0,20.1,30.13,SE,126,0.0,1.0,19,0.00,NA,NA,-99.99,VWS Version 10.39,2013-02-16 08:01:00,
2013-02-16 00:06:00,63.2,20.3,30.13,ENE,76,0.0,0.0,19,0.00,NA,NA,-99.99,VWS Version 10.39,2013-02-16 08:06:00,
2013-02-16 00:11:00,63.4,19.2,30.13,ENE,76,0.0,0.0,18,0.00,NA,NA,-99.99,VWS Version 10.39,2013-02-16 08:11:00,
2013-02-16 00:16:00,63.5,20.5,30.13,ENE,76,0.0,0.0,19,0.00,NA,NA,-99.99,VWS Version 10.39,2013-02-16 08:16:00,
2013-02-16 00:21:00,63.3,19.1,30.13,ENE,78,5.0,5.0,18,0.00,NA,NA,-99.99,VWS Version 10.39,2013-02-16 08:21:00,
2013-02-16 00:26:00,64.3,19.9,30.12,ENE,76,7.0,7.0,18,0.00,NA,NA,-99.99,VWS Version 10.39,2013-02-16 08:26:00,
2013-02-16 00:31:00,65.5,18.1,30.12,ENE,69,7.0,10.0,16,0.00,NA,NA,-99.99,VWS Version 10.39,2013-02-16 08:31:00,
2013-02-16 00:36:00,65.9,18.5,30.12,ENE,76,9.0,9.0,16,0.00,NA,NA,-99.99,VWS Version 10.39,2013-02-16 08:36:00,
2013-02-16 00:41:00,65.8,18.4,30.12,SE,132,7.0,10.0,16,0.00,NA,NA,-99.99,VWS Version 10.39,2013-02-16 08:41:00,
2013-02-16 00:46:00,66.1,18.6,30.12,ENE,65,11.0,13.0,16,0.00,NA,NA,-99.99,VWS Version 10.39,2013-02-16 08:46:00,
2013-02-16 00:51:00,66.8,17.7,30.12,East,89,9.0,10.0,15,0.00,NA,NA,-99.99,VWS Version 10.39,2013-02-16 08:51:00,
2013-02-16 00:56:00,67.2,18.0,30.11,East,79,8.0,10.0,15,0.00,NA,NA,-99.99,VWS Version 10.39,2013-02-16 08:56:00,
2013-02-16 01:01:00,67.2,18.0,30.12,East,85,14.0,16.0,15,0.00,NA,NA,-99.99,VWS Version 10.39,2013-02-16 09:01:00,
2013-02-16 01:06:00,67.4,18.2,30.12,ENE,76,11.0,11.0,15,0.00,NA,NA,-99.99,VWS Version 10.39,2013-02-16 09:06:00,
2013-02-16 01:11:00,67.3,18.1,30.12,East,97,8.0,15.0,15,0.00,NA,NA,-99.99,VWS Version 10.39,2013-02-16 09:11:00,
2013-02-16 01:16:00,67.5,18.3,30.12,East,92,10.0,15.0,15,0.00,NA,NA,-99.99,VWS Version 10.39,2013-02-16 09:16:00,
2013-02-16 01:21:00,67.3,18.1,30.12,ESE,116,11.0,14.0,15,0.00,NA,NA,-99.99,VWS Version 10.39,2013-02-16 09:21:00,
2013-02-16 01:26:00,67.4,18.2,30.12,ESE,113,11.0,11.0,15,0.00,NA,NA,-99.99,VWS Version 10.39,2013-02-16 09:26:00,
2013-02-16 01:31:00,67.4,18.2,30.12,East,92,9.0,13.0,15,0.00,NA,NA,-99.99,VWS Version 10.39,2013-02-16 09:31:00,
2013-02-16 01:36:00,67.2,18.0,30.12,East,80,10.0,11.0,15,0.00,NA,NA,-99.99,VWS Version 10.39,2013-02-16 09:36:00,
2013-02-16 01:41:00,67.4,18.2,30.12,East,86,11.0,11.0,15,0.00,NA,NA,-99.99,VWS Version 10.39,2013-02-16 09:41:00,
2013-02-16 01:46:00,67.2,18.0,30.12,East,82,8.0,11.0,15,0.00,NA,NA,-99.99,VWS Version 10.39,2013-02-16 09:46:00,
2013-02-16 01:51:00,67.2,16.4,30.12,East,92,9.0,10.0,14,0.00,NA,NA,-99.99,VWS Version 10.39,2013-02-16 09:51:00,
2013-02-16 01:56:00,67.1,17.9,30.12,ENE,78,7.0,8.0,15,0.00,NA,NA,-99.99,VWS Version 10.39,2013-02-16 09:56:00,
2013-02-16 02:01:00,66.6,17.5,30.12,East,95,9.0,10.0,15,0.00,NA,NA,-99.99,VWS Version 10.39,2013-02-16 10:01:00,
2013-02-16 02:06:00,66.2,17.2,30.12,East,101,8.0,9.0,15,0.00,NA,NA,-99.99,VWS Version 10.39,2013-02-16 10:06:00,
2013-02-16 02:11:00,66.2,17.2,30.12,East,88,8.0,9.0,15,0.00,NA,NA,-99.99,VWS Version 10.39,2013-02-16 10:11:00,
2013-02-16 02:16:00,66.4,17.4,30.12,East,88,7.0,7.0,15,0.00,NA,NA,-99.99,VWS Version 10.39,2013-02-16 10:16:00,
2013-02-16 02:21:00,65.8,18.4,30.12,ESE,102,7.0,7.0,16,0.00,NA,NA,-99.99,VWS Version 10.39,2013-02-16 10:21:00,
2013-02-16 02:26:00,65.4,16.6,30.12,East,86,9.0,9.0,15,0.00,NA,NA,-99.99,VWS Version 10.39,2013-02-16 10:26:00,
2013-02-16 02:31:00,66.0,17.1,30.12,ENE,76,7.0,10.0,15,0.00,NA,NA,-99.99,VWS Version 10.39,2013-02-16 10:31:00,
2013-02-16 02:36:00,66.5,17.5,30.11,East,99,8.0,9.0,15,0.00,NA,NA,-99.99,VWS Version 10.39,2013-02-16 10:36:00,
2013-02-16 02:41:00,66.1,17.1,30.11,ENE,69,5.0,9.0,15,0.00,NA,NA,-99.99,VWS Version 10.39,2013-02-16 10:41:00,
2013-02-16 02:46:00,66.6,15.9,30.12,ENE,71,9.0,9.0,14,0.00,NA,NA,-99.99,VWS Version 10.39,2013-02-16 10:46:00,
2013-02-16 02:51:00,66.9,16.2,30.12,East,100,9.0,9.0,14,0.00,NA,NA,-99.99,VWS Version 10.39,2013-02-16 10:51:00,
2013-02-16 02:56:00,66.6,15.9,30.11,East,92,9.0,9.0,14,0.00,NA,NA,-99.99,VWS Version 10.39,2013-02-16 10:56:00,
2013-02-16 03:01:00,66.6,15.9,30.11,ENE,76,9.0,9.0,14,0.00,NA,NA,-99.99,VWS Version 10.39,2013-02-16 11:01:00,
2013-02-16 03:06:00,67.2,16.4,30.11,East,96,9.0,10.0,14,0.00,NA,NA,-99.99,VWS Version 10.39,2013-02-16 11:06:00,
2013-02-16 03:11:00,67.0,16.3,30.11,East,82,9.0,9.0,14,0.00,NA,NA,-99.99,VWS Version 10.39,2013-02-16 11:11:00,
2013-02-16 03:16:00,66.9,16.2,30.11,East,83,8.0,10.0,14,0.00,NA,NA,-99.99,VWS Version 10.39,2013-02-16 11:16:00,
2013-02-16 03:21:00,67.0,16.3,30.11,ENE,78,8.0,11.0,14,0.00,NA,NA,-99.99,VWS Version 10.39,2013-02-16 11:21:00,
2013-02-16 03:26:00,67.0,16.3,30.10,ENE,71,7.0,10.0,14,0.00,NA,NA,-99.99,VWS Version 10.39,2013-02-16 11:26:00,
2013-02-16 03:31:00,66.9,16.2,30.10,ENE,71,8.0,9.0,14,0.00,NA,NA,-99.99,VWS Version 10.39,2013-02-16 11:31:00,
2013-02-16 03:36:00,66.7,16.0,30.10,East,96,7.0,7.0,14,0.00,NA,NA,-99.99,VWS Version 10.39,2013-02-16 11:36:00,
2013-02-16 03:41:00,66.5,15.9,30.10,East,85,6.0,7.0,14,0.00,NA,NA,-99.99,VWS Version 10.39,2013-02-16 11:41:00,
2013-02-16 03:46:00,66.3,15.7,30.10,ENE,57,7.0,8.0,14,0.00,NA,NA,-99.99,VWS Version 10.39,2013-02-16 11:46:00,
2013-02-16 03:51:00,66.3,15.7,30.11,NE,46,5.0,6.0,14,0.00,NA,NA,-99.99,VWS Version 10.39,2013-02-16 11:51:00,
2013-02-16 03:56:00,66.4,15.8,30.10,ENE,71,5.0,9.0,14,0.00,NA,NA,-99.99,VWS Version 10.39,2013-02-16 11:56:00,
2013-02-16 04:01:00,66.4,15.8,30.11,ENE,63,4.0,8.0,14,0.00,NA,NA,-99.99,VWS Version 10.39,2013-02-16 12:01:00,
2013-02-16 04:06:00,66.4,15.8,30.11,ENE,64,7.0,7.0,14,0.00,NA,NA,-99.99,VWS Version 10.39,2013-02-16 12:06:00,
2013-02-16 04:11:00,66.5,15.9,30.11,East,92,6.0,7.0,14,0.00,NA,NA,-99.99,VWS Version 10.39,2013-02-16 12:11:00,
2013-02-16 04:16:00,66.6,14.2,30.11,East,85,8.0,10.0,13,0.00,NA,NA,-99.99,VWS Version 10.39,2013-02-16 12:16:00,
2013-02-16 04:21:00,66.6,15.9,30.11,ENE,71,7.0,9.0,14,0.00,NA,NA,-99.99,VWS Version 10.39,2013-02-16 12:21:00,
2013-02-16 04:26:00,66.2,15.6,30.11,East,95,7.0,10.0,14,0.00,NA,NA,-99.99,VWS Version 10.39,2013-02-16 12:26:00,
2013-02-16 04:31:00,66.2,15.6,30.11,NE,44,6.0,8.0,14,0.00,NA,NA,-99.99,VWS Version 10.39,2013-02-16 12:31:00,
2013-02-16 04:36:00,66.2,15.6,30.11,ENE,74,7.0,10.0,14,0.00,NA,NA,-99.99,VWS Version 10.39,2013-02-16 12:36:00,
2013-02-16 04:41:00,66.2,15.6,30.11,NE,46,5.0,10.0,14,0.00,NA,NA,-99.99,VWS Version 10.39,2013-02-16 12:41:00,
2013-02-16 04:46:00,66.2,15.6,30.11,East,82,7.0,9.0,14,0.00,NA,NA,-99.99,VWS Version 10.39,2013-02-16 12:46:00,
2013-02-16 04:51:00,66.1,15.6,30.10,East,90,5.0,8.0,14,0.00,NA,NA,-99.99,VWS Version 10.39,2013-02-16 12:51:00,
2013-02-16 04:56:00,66.0,15.5,30.10,East,87,8.0,8.0,14,0.00,NA,NA,-99.99,VWS Version 10.39,2013-02-16 12:56:00,
2013-02-16 05:01:00,65.9,15.4,30.11,East,82,8.0,8.0,14,0.00,NA,NA,-99.99,VWS Version 10.39,2013-02-16 13:01:00,
2013-02-16 05:11:00,65.7,15.2,30.11,ENE,58,9.0,9.0,14,0.00,NA,NA,-99.99,VWS Version 10.39,2013-02-16 13:11:00,
2013-02-16 05:16:00,65.8,15.3,30.11,ENE,62,7.0,9.0,14,0.00,NA,NA,-99.99,VWS Version 10.39,2013-02-16 13:16:00,
2013-02-16 05:21:00,65.9,15.4,30.11,East,81,6.0,8.0,14,0.00,NA,NA,-99.99,VWS Version 10.39,2013-02-16 13:21:00,
2013-02-16 05:26:00,66.2,15.6,30.11,East,86,9.0,9.0,14,0.00,NA,NA,-99.99,VWS Version 10.39,2013-02-16 13:26:00,
2013-02-16 05:31:00,66.3,15.7,30.11,ENE,57,5.0,8.0,14,0.00,NA,NA,-99.99,VWS Version 10.39,2013-02-16 13:31:00,
2013-02-16 05:36:00,66.2,15.6,30.11,ENE,74,8.0,8.0,14,0.00,NA,NA,-99.99,VWS Version 10.39,2013-02-16 13:36:00,
2013-02-16 05:41:00,66.3,15.7,30.11,ENE,71,7.0,8.0,14,0.00,NA,NA,-99.99,VWS Version 10.39,2013-02-16 13:41:00,
2013-02-16 05:46:00,66.3,15.7,30.11,ENE,78,8.0,8.0,14,0.00,NA,NA,-99.99,VWS Version 10.39,2013-02-16 13:46:00,
2013-02-16 05:51:00,66.1,15.6,30.11,East,83,7.0,7.0,14,0.00,NA,NA,-99.99,VWS Version 10.39,2013-02-16 13:51:00,
2013-02-16 05:56:00,66.6,15.9,30.11,ENE,64,2.0,3.0,14,0.00,NA,NA,-99.99,VWS Version 10.39,2013-02-16 13:56:00,
2013-02-16 06:01:00,66.5,15.9,30.11,East,82,2.0,2.0,14,0.00,NA,NA,-99.99,VWS Version 10.39,2013-02-16 14:01:00,
2013-02-16 06:06:00,64.2,30.4,30.11,West,275,2.0,3.0,28,0.00,NA,NA,-99.99,VWS Version 10.39,2013-02-16 14:06:00,
2013-02-16 06:11:00,62.6,30.8,30.11,West,277,3.0,3.0,30,0.00,NA,NA,-99.99,VWS Version 10.39,2013-02-16 14:11:00,
2013-02-16 06:16:00,60.7,38.7,30.11,WSW,250,1.0,3.0,44,0.00,NA,NA,-99.99,VWS Version 10.39,2013-02-16 14:16:00,
2013-02-16 06:21:00,59.1,40.5,30.11,West,265,2.0,3.0,50,0.00,NA,NA,-99.99,VWS Version 10.39,2013-02-16 14:21:00,
2013-02-16 06:26:00,58.3,40.3,30.11,West,278,3.0,3.0,51,0.00,NA,NA,-99.99,VWS Version 10.39,2013-02-16 14:26:00,
2013-02-16 06:31:00,57.8,39.3,30.11,West,273,1.0,3.0,50,0.00,NA,NA,-99.99,VWS Version 10.39,2013-02-16 14:31:00,
2013-02-16 06:36:00,57.4,38.9,30.11,West,273,2.0,3.0,50,0.00,NA,NA,-99.99,VWS Version 10.39,2013-02-16 14:36:00,
2013-02-16 06:41:00,57.2,39.8,30.12,WNW,291,0.0,0.0,52,0.00,NA,NA,-99.99,VWS Version 10.39,2013-02-16 14:41:00,
2013-02-16 06:46:00,56.9,39.5,30.12,WNW,291,1.0,1.0,52,0.00,NA,NA,-99.99,VWS Version 10.39,2013-02-16 14:46:00,
2013-02-16 06:51:00,56.7,39.8,30.12,WNW,290,0.0,0.0,53,0.00,NA,NA,-99.99,VWS Version 10.39,2013-02-16 14:51:00,
2013-02-16 06:56:00,56.6,39.2,30.12,WNW,290,0.0,0.0,52,0.00,NA,NA,-99.99,VWS Version 10.39,2013-02-16 14:56:00,
2013-02-16 07:01:00,56.5,39.6,30.12,WNW,290,1.0,2.0,53,0.00,NA,NA,-99.99,VWS Version 10.39,2013-02-16 15:01:00,
2013-02-16 07:06:00,56.5,38.6,30.12,North,350,2.0,3.0,51,0.00,NA,NA,-99.99,VWS Version 10.39,2013-02-16 15:06:00,
2013-02-16 07:11:00,56.8,39.4,30.12,North,350,1.0,2.0,52,0.00,NA,NA,-99.99,VWS Version 10.39,2013-02-16 15:11:00,
2013-02-16 07:16:00,57.2,40.2,30.12,NNW,347,2.0,2.0,53,0.00,NA,NA,-99.99,VWS Version 10.39,2013-02-16 15:16:00,
2013-02-16 07:21:00,57.4,39.4,30.13,West,269,2.0,3.0,51,0.00,NA,NA,-99.99,VWS Version 10.39,2013-02-16 15:21:00,
2013-02-16 07:26:00,57.8,40.3,30.13,West,269,0.0,0.0,52,0.00,NA,NA,-99.99,VWS Version 10.39,2013-02-16 15:26:00,
2013-02-16 07:31:00,58.4,40.9,30.13,SSE,165,1.0,2.0,52,0.00,NA,NA,-99.99,VWS Version 10.39,2013-02-16 15:31:00,
2013-02-16 07:36:00,59.2,40.1,30.13,SSE,156,0.0,0.0,49,0.00,NA,NA,-99.99,VWS Version 10.39,2013-02-16 15:36:00,
2013-02-16 07:41:00,59.5,39.8,30.13,SSE,156,0.0,0.0,48,0.00,NA,NA,-99.99,VWS Version 10.39,2013-02-16 15:41:00,
2013-02-16 07:46:00,60.1,41.9,30.13,SSE,156,0.0,1.0,51,0.00,NA,NA,-99.99,VWS Version 10.39,2013-02-16 15:46:00,
2013-02-16 07:51:00,60.9,43.7,30.13,SSE,156,0.0,0.0,53,0.00,NA,NA,-99.99,VWS Version 10.39,2013-02-16 15:51:00,
2013-02-16 07:56:00,61.7,44.4,30.13,SSE,156,1.0,1.0,53,0.00,NA,NA,-99.99,VWS Version 10.39,2013-02-16 15:56:00,
2013-02-16 08:01:00,62.4,44.6,30.13,SSE,156,0.0,0.0,52,0.00,NA,NA,-99.99,VWS Version 10.39,2013-02-16 16:01:00,
2013-02-16 08:06:00,63.1,45.2,30.13,SSE,156,0.0,0.0,52,0.00,NA,NA,-99.99,VWS Version 10.39,2013-02-16 16:06:00,
2013-02-16 08:11:00,63.5,45.1,30.13,SSE,153,1.0,2.0,51,0.00,NA,NA,-99.99,VWS Version 10.39,2013-02-16 16:11:00,
2013-02-16 08:16:00,63.7,44.2,30.13,SSE,149,2.0,2.0,49,0.00,NA,NA,-99.99,VWS Version 10.39,2013-02-16 16:16:00,
2013-02-16 08:21:00,64.0,42.8,30.13,SSE,149,0.0,0.0,46,0.00,NA,NA,-99.99,VWS Version 10.39,2013-02-16 16:21:00,
2013-02-16 08:26:00,64.5,43.3,30.13,SSE,149,0.0,1.0,46,0.00,NA,NA,-99.99,VWS Version 10.39,2013-02-16 16:26:00,
2013-02-16 08:31:00,65.5,44.8,30.13,SSE,149,0.0,0.0,47,0.00,NA,NA,-99.99,VWS Version 10.39,2013-02-16 16:31:00,
2013-02-16 08:36:00,66.5,42.1,30.13,SSE,149,0.0,0.0,41,0.00,NA,NA,-99.99,VWS Version 10.39,2013-02-16 16:36:00,
2013-02-16 08:46:00,67.3,42.8,30.13,ENE,59,2.0,2.0,41,0.00,NA,NA,-99.99,VWS Version 10.39,2013-02-16 16:46:00,
2013-02-16 08:51:00,67.7,44.4,30.13,SSW,202,1.0,1.0,43,0.00,NA,NA,-99.99,VWS Version 10.39,2013-02-16 16:51:00,
2013-02-16 08:56:00,68.9,40.9,30.12,SSW,202,0.0,1.0,36,0.00,NA,NA,-99.99,VWS Version 10.39,2013-02-16 16:56:00,
2013-02-16 09:01:00,70.5,43.7,30.13,SSW,201,1.0,2.0,38,0.00,NA,NA,-99.99,VWS Version 10.39,2013-02-16 17:01:00,
2013-02-16 09:11:00,72.2,43.1,30.13,South,178,2.0,3.0,35,0.00,NA,NA,-99.99,VWS Version 10.39,2013-02-16 17:11:00,
2013-02-16 09:21:00,71.2,42.2,30.13,West,264,3.0,4.0,35,0.00,NA,NA,-99.99,VWS Version 10.39,2013-02-16 17:21:00,
2013-02-16 09:26:00,69.0,38.7,30.13,West,274,0.0,2.0,33,0.00,NA,NA,-99.99,VWS Version 10.39,2013-02-16 17:26:00,
2013-02-16 09:31:00,67.8,39.2,30.13,WNW,285,2.0,3.0,35,0.00,NA,NA,-99.99,VWS Version 10.39,2013-02-16 17:31:00,
2013-02-16 09:36:00,66.9,41.8,30.13,NW,313,0.0,1.0,40,0.00,NA,NA,-99.99,VWS Version 10.39,2013-02-16 17:36:00,
2013-02-16 09:41:00,66.8,40.4,30.13,WSW,253,2.0,2.0,38,0.00,NA,NA,-99.99,VWS Version 10.39,2013-02-16 17:41:00,
2013-02-16 09:46:00,66.8,39.7,30.13,SW,223,1.0,1.0,37,0.00,NA,NA,-99.99,VWS Version 10.39,2013-02-16 17:46:00,
2013-02-16 09:51:00,66.8,41.7,30.13,NW,313,1.0,1.0,40,0.00,NA,NA,-99.99,VWS Version 10.39,2013-02-16 17:51:00,
2013-02-16 09:56:00,66.3,40.0,30.13,NW,313,3.0,3.0,38,0.00,NA,NA,-99.99,VWS Version 10.39,2013-02-16 17:56:00,
2013-02-16 10:01:00,65.9,36.8,30.13,NW,309,0.0,1.0,34,0.00,NA,NA,-99.99,VWS Version 10.39,2013-02-16 18:01:00,
2013-02-16 10:06:00,66.5,37.3,30.13,NW,309,2.0,2.0,34,0.00,NA,NA,-99.99,VWS Version 10.39,2013-02-16 18:06:00,
2013-02-16 10:11:00,67.4,38.8,30.13,SSW,210,2.0,2.0,35,0.00,NA,NA,-99.99,VWS Version 10.39,2013-02-16 18:11:00,
2013-02-16 10:16:00,68.9,39.4,30.13,WSW,242,2.0,2.0,34,0.00,NA,NA,-99.99,VWS Version 10.39,2013-02-16 18:16:00,
2013-02-16 10:21:00,70.4,36.7,30.13,West,259,3.0,4.0,29,0.00,NA,NA,-99.99,VWS Version 10.39,2013-02-16 18:21:00,
2013-02-16 10:26:00,70.8,35.2,30.13,WSW,238,0.0,2.0,27,0.00,NA,NA,-99.99,VWS Version 10.39,2013-02-16 18:26:00,
2013-02-16 10:31:00,71.0,33.4,30.13,WNW,292,1.0,1.0,25,0.00,NA,NA,-99.99,VWS Version 10.39,2013-02-16 18:31:00,
2013-02-16 10:36:00,70.8,32.3,30.12,NW,309,4.0,4.0,24,0.00,NA,NA,-99.99,VWS Version 10.39,2013-02-16 18:36:00,
2013-02-16 10:41:00,70.8,30.1,30.12,WNW,297,2.0,2.0,22,0.00,NA,NA,-99.99,VWS Version 10.39,2013-02-16 18:41:00,
2013-02-16 10:46:00,71.6,32.9,30.12,WSW,256,1.0,2.0,24,0.00,NA,NA,-99.99,VWS Version 10.39,2013-02-16 18:46:00,
2013-02-16 10:51:00,72.1,28.9,30.12,WNW,292,2.0,3.0,20,0.00,NA,NA,-99.99,VWS Version 10.39,2013-02-16 18:51:00,
2013-02-16 10:56:00,72.4,30.3,30.12,SW,236,1.0,1.0,21,0.00,NA,NA,-99.99,VWS Version 10.39,2013-02-16 18:56:00,
2013-02-16 11:06:00,73.5,31.2,30.11,West,265,2.0,4.0,21,0.00,NA,NA,-99.99,VWS Version 10.39,2013-02-16 19:06:00,
2013-02-16 11:11:00,72.9,34.0,30.11,NW,309,2.0,2.0,24,0.00,NA,NA,-99.99,VWS Version 10.39,2013-02-16 19:11:00,
2013-02-16 11:16:00,71.6,34.0,30.11,WSW,253,2.0,4.0,25,0.00,NA,NA,-99.99,VWS Version 10.39,2013-02-16 19:16:00,
2013-02-16 11:21:00,71.0,32.4,30.10,SW,227,0.0,1.0,24,0.00,NA,NA,-99.99,VWS Version 10.39,2013-02-16 19:21:00,
2013-02-16 11:26:00,71.1,31.5,30.10,WNW,286,4.0,4.0,23,0.00,NA,NA,-99.99,VWS Version 10.39,2013-02-16 19:26:00,
2013-02-16 11:31:00,71.1,32.5,30.10,NNW,333,3.0,3.0,24,0.00,NA,NA,-99.99,VWS Version 10.39,2013-02-16 19:31:00,
2013-02-16 11:36:00,71.2,30.4,30.10,NNW,332,2.0,3.0,22,0.00,NA,NA,-99.99,VWS Version 10.39,2013-02-16 19:36:00,
2013-02-16 11:41:00,72.3,31.4,30.09,NW,315,1.0,2.0,22,0.00,NA,NA,-99.99,VWS Version 10.39,2013-02-16 19:41:00,
2013-02-16 11:46:00,73.3,29.8,30.09,West,279,3.0,4.0,20,0.00,NA,NA,-99.99,VWS Version 10.39,2013-02-16 19:46:00,
2013-02-16 11:51:00,74.1,26.5,30.09,NW,317,2.0,4.0,17,0.00,NA,NA,-99.99,VWS Version 10.39,2013-02-16 19:51:00,
2013-02-16 11:56:00,74.2,34.1,30.08,WNW,293,5.0,5.0,23,0.00,NA,NA,-99.99,VWS Version 10.39,2013-02-16 19:56:00,
2013-02-16 12:06:00,73.8,27.7,30.08,WNW,287,4.0,4.0,18,0.00,NA,NA,-99.99,VWS Version 10.39,2013-02-16 20:06:00,
2013-02-16 12:11:00,74.6,27.0,30.07,NE,42,1.0,6.0,17,0.00,NA,NA,-99.99,VWS Version 10.39,2013-02-16 20:11:00,
2013-02-16 12:16:00,75.3,32.7,30.07,NNE,27,1.0,3.0,21,0.00,NA,NA,-99.99,VWS Version 10.39,2013-02-16 20:16:00,
2013-02-16 12:21:00,75.1,30.1,30.06,WNW,290,4.0,7.0,19,0.00,NA,NA,-99.99,VWS Version 10.39,2013-02-16 20:21:00,
2013-02-16 12:26:00,75.0,25.8,30.06,NNW,333,2.0,4.0,16,0.00,NA,NA,-99.99,VWS Version 10.39,2013-02-16 20:26:00,
2013-02-16 12:31:00,75.1,25.9,30.06,SW,230,4.0,6.0,16,0.00,NA,NA,-99.99,VWS Version 10.39,2013-02-16 20:31:00,
2013-02-16 12:36:00,74.3,33.0,30.05,SE,135,4.0,5.0,22,0.00,NA,NA,-99.99,VWS Version 10.39,2013-02-16 20:36:00,
2013-02-16 12:41:00,73.2,31.0,30.05,NW,310,1.0,5.0,21,0.00,NA,NA,-99.99,VWS Version 10.39,2013-02-16 20:41:00,
2013-02-16 12:46:00,73.1,30.9,30.05,WNW,294,6.0,6.0,21,0.00,NA,NA,-99.99,VWS Version 10.39,2013-02-16 20:46:00,
2013-02-16 12:51:00,73.8,26.3,30.04,NW,311,5.0,6.0,17,0.00,NA,NA,-99.99,VWS Version 10.39,2013-02-16 20:51:00,
2013-02-16 12:56:00,73.2,36.3,30.04,WNW,286,7.0,7.0,26,0.00,NA,NA,-99.99,VWS Version 10.39,2013-02-16 20:56:00,
2013-02-16 13:01:00,72.5,32.6,30.04,WNW,300,5.0,6.0,23,0.00,NA,NA,-99.99,VWS Version 10.39,2013-02-16 21:01:00,
2013-02-16 13:06:00,72.8,33.9,30.04,West,273,7.0,8.0,24,0.00,NA,NA,-99.99,VWS Version 10.39,2013-02-16 21:06:00,
2013-02-16 13:11:00,72.5,36.7,30.04,WNW,286,5.0,8.0,27,0.00,NA,NA,-99.99,VWS Version 10.39,2013-02-16 21:11:00,
2013-02-16 13:16:00,71.9,37.1,30.03,NW,315,3.0,5.0,28,0.00,NA,NA,-99.99,VWS Version 10.39,2013-02-16 21:16:00,
2013-02-16 13:21:00,71.9,32.1,30.03,NW,321,7.0,8.0,23,0.00,NA,NA,-99.99,VWS Version 10.39,2013-02-16 21:21:00,
2013-02-16 13:26:00,72.3,32.5,30.03,SW,224,3.0,5.0,23,0.00,NA,NA,-99.99,VWS Version 10.39,2013-02-16 21:26:00,
2013-02-16 13:31:00,72.9,30.7,30.03,WNW,283,5.0,5.0,21,0.00,NA,NA,-99.99,VWS Version 10.39,2013-02-16 21:31:00,
2013-02-16 13:36:00,72.8,28.2,30.03,NNW,342,5.0,8.0,19,0.00,NA,NA,-99.99,VWS Version 10.39,2013-02-16 21:36:00,
2013-02-16 13:41:00,73.0,29.6,30.02,NW,306,6.0,6.0,20,0.00,NA,NA,-99.99,VWS Version 10.39,2013-02-16 21:41:00,
2013-02-16 13:46:00,72.9,28.3,30.02,NW,305,8.0,8.0,19,0.00,NA,NA,-99.99,VWS Version 10.39,2013-02-16 21:46:00,
2013-02-16 13:51:00,73.0,27.0,30.02,WNW,288,8.0,8.0,18,0.00,NA,NA,-99.99,VWS Version 10.39,2013-02-16 21:51:00,
2013-02-16 13:56:00,73.4,26.0,30.01,WNW,300,7.0,8.0,17,0.00,NA,NA,-99.99,VWS Version 10.39,2013-02-16 21:56:00,
2013-02-16 14:01:00,73.9,29.1,30.01,WNW,282,6.0,6.0,19,0.00,NA,NA,-99.99,VWS Version 10.39,2013-02-16 22:01:00,
2013-02-16 14:06:00,73.8,27.7,30.01,WNW,300,4.0,4.0,18,0.00,NA,NA,-99.99,VWS Version 10.39,2013-02-16 22:06:00,
2013-02-16 14:11:00,74.2,26.6,30.01,WSW,253,5.0,5.0,17,0.00,NA,NA,-99.99,VWS Version 10.39,2013-02-16 22:11:00,
2013-02-16 14:16:00,74.4,25.3,30.01,NW,312,5.0,8.0,16,0.00,NA,NA,-99.99,VWS Version 10.39,2013-02-16 22:16:00,
2013-02-16 14:21:00,74.1,23.5,30.01,West,263,4.0,8.0,15,0.00,NA,NA,-99.99,VWS Version 10.39,2013-02-16 22:21:00,
2013-02-16 14:26:00,74.6,22.3,30.00,West,271,3.0,8.0,14,0.00,NA,NA,-99.99,VWS Version 10.39,2013-02-16 22:26:00,
2013-02-16 14:31:00,74.6,20.5,30.00,NW,307,7.0,10.0,13,0.00,NA,NA,-99.99,VWS Version 10.39,2013-02-16 22:31:00,
2013-02-16 14:36:00,74.3,23.7,30.00,NE,47,2.0,5.0,15,0.00,NA,NA,-99.99,VWS Version 10.39,2013-02-16 22:36:00,
2013-02-16 14:41:00,74.5,28.2,30.00,WSW,246,7.0,8.0,18,0.00,NA,NA,-99.99,VWS Version 10.39,2013-02-16 22:41:00,
2013-02-16 14:46:00,74.0,29.2,30.00,WNW,302,8.0,8.0,19,0.00,NA,NA,-99.99,VWS Version 10.39,2013-02-16 22:46:00,
2013-02-16 14:51:00,72.8,31.8,30.00,NNW,329,7.0,7.0,22,0.00,NA,NA,-99.99,VWS Version 10.39,2013-02-16 22:51:00,
2013-02-16 14:56:00,72.1,24.9,30.00,NNW,336,11.0,11.0,17,0.00,NA,NA,-99.99,VWS Version 10.39,2013-02-16 22:56:00,
2013-02-16 15:01:00,72.4,26.5,30.00,North,355,4.0,7.0,18,0.00,NA,NA,-99.99,VWS Version 10.39,2013-02-16 23:01:00,
2013-02-16 15:06:00,72.4,30.3,30.00,WNW,297,9.0,9.0,21,0.00,NA,NA,-99.99,VWS Version 10.39,2013-02-16 23:06:00,
2013-02-16 15:11:00,71.9,26.1,30.00,NW,321,7.0,7.0,18,0.00,NA,NA,-99.99,VWS Version 10.39,2013-02-16 23:11:00,
2013-02-16 15:16:00,72.3,23.6,30.00,WNW,297,7.0,7.0,16,0.00,NA,NA,-99.99,VWS Version 10.39,2013-02-16 23:16:00,
2013-02-16 15:21:00,72.8,20.9,30.00,WNW,290,6.0,9.0,14,0.00,NA,NA,-99.99,VWS Version 10.39,2013-02-16 23:21:00,
2013-02-16 15:26:00,73.1,21.1,29.99,WNW,298,11.0,12.0,14,0.00,NA,NA,-99.99,VWS Version 10.39,2013-02-16 23:26:00,
2013-02-16 15:31:00,73.1,19.4,29.99,North,360,6.0,12.0,13,0.00,NA,NA,-99.99,VWS Version 10.39,2013-02-16 23:31:00,
2013-02-16 15:36:00,72.7,20.8,29.99,NW,326,10.0,12.0,14,0.00,NA,NA,-99.99,VWS Version 10.39,2013-02-16 23:36:00,
2013-02-16 15:41:00,72.6,20.7,29.99,NW,304,10.0,11.0,14,0.00,NA,NA,-99.99,VWS Version 10.39,2013-02-16 23:41:00,
2013-02-16 15:51:00,72.7,19.1,29.99,WNW,284,8.0,9.0,13,0.00,NA,NA,-99.99,VWS Version 10.39,2013-02-16 23:51:00,
2013-02-16 15:56:00,73.0,21.0,29.99,NW,318,10.0,10.0,14,0.00,NA,NA,-99.99,VWS Version 10.39,2013-02-16 23:56:00,
2013-02-16 16:01:00,73.2,19.5,29.99,WNW,293,6.0,8.0,13,0.00,NA,NA,-99.99,VWS Version 10.39,2013-02-17 00:01:00,
2013-02-16 16:06:00,73.5,19.7,29.99,West,270,4.0,6.0,13,0.00,NA,NA,-99.99,VWS Version 10.39,2013-02-17 00:06:00,
2013-02-16 16:11:00,73.7,19.8,29.99,NW,308,5.0,8.0,13,0.00,NA,NA,-99.99,VWS Version 10.39,2013-02-17 00:11:00,
2013-02-16 16:16:00,73.6,19.8,29.99,WNW,290,6.0,6.0,13,0.00,NA,NA,-99.99,VWS Version 10.39,2013-02-17 00:16:00,
2013-02-16 16:21:00,73.7,18.0,29.99,WNW,302,8.0,8.0,12,0.00,NA,NA,-99.99,VWS Version 10.39,2013-02-17 00:21:00,
2013-02-16 16:26:00,73.8,19.9,29.99,NW,311,4.0,4.0,13,0.00,NA,NA,-99.99,VWS Version 10.39,2013-02-17 00:26:00,
2013-02-16 16:31:00,73.9,20.0,29.98,WNW,286,6.0,7.0,13,0.00,NA,NA,-99.99,VWS Version 10.39,2013-02-17 00:31:00,
2013-02-16 16:36:00,73.9,18.1,29.99,NW,326,4.0,4.0,12,0.00,NA,NA,-99.99,VWS Version 10.39,2013-02-17 00:36:00,
2013-02-16 16:41:00,73.9,20.0,29.98,WNW,303,2.0,3.0,13,0.00,NA,NA,-99.99,VWS Version 10.39,2013-02-17 00:41:00,
2013-02-16 16:46:00,74.0,18.2,29.98,NW,323,4.0,4.0,12,0.00,NA,NA,-99.99,VWS Version 10.39,2013-02-17 00:46:00,
2013-02-16 16:51:00,74.1,18.3,29.98,WNW,298,1.0,1.0,12,0.00,NA,NA,-99.99,VWS Version 10.39,2013-02-17 00:51:00,
2013-02-16 16:56:00,74.2,20.2,29.98,NW,305,1.0,2.0,13,0.00,NA,NA,-99.99,VWS Version 10.39,2013-02-17 00:56:00,
2013-02-16 17:01:00,74.2,18.4,29.98,WNW,283,4.0,4.0,12,0.00,NA,NA,-99.99,VWS Version 10.39,2013-02-17 01:01:00,
2013-02-16 17:11:00,73.4,29.9,29.98,West,267,1.0,2.0,20,0.00,NA,NA,-99.99,VWS Version 10.39,2013-02-17 01:11:00,
2013-02-16 17:16:00,72.7,30.5,29.98,West,273,2.0,3.0,21,0.00,NA,NA,-99.99,VWS Version 10.39,2013-02-17 01:16:00,
2013-02-16 17:21:00,71.7,29.7,29.98,WSW,252,1.0,1.0,21,0.00,NA,NA,-99.99,VWS Version 10.39,2013-02-17 01:21:00,
2013-02-16 17:26:00,70.5,28.7,29.98,NW,307,3.0,5.0,21,0.00,NA,NA,-99.99,VWS Version 10.39,2013-02-17 01:26:00,
2013-02-16 17:31:00,69.5,29.0,29.98,NW,304,5.0,6.0,22,0.00,NA,NA,-99.99,VWS Version 10.39,2013-02-17 01:31:00,
2013-02-16 17:36:00,69.2,27.6,29.98,NW,322,1.0,2.0,21,0.00,NA,NA,-99.99,VWS Version 10.39,2013-02-17 01:36:00,
2013-02-16 17:46:00,69.3,22.6,29.99,WNW,300,2.0,3.0,17,0.00,NA,NA,-99.99,VWS Version 10.39,2013-02-17 01:46:00,
2013-02-16 17:51:00,69.3,21.2,29.99,NNW,345,1.0,1.0,16,0.00,NA,NA,-99.99,VWS Version 10.39,2013-02-17 01:51:00,
2013-02-16 17:56:00,69.2,21.1,29.99,NNW,345,0.0,1.0,16,0.00,NA,NA,-99.99,VWS Version 10.39,2013-02-17 01:56:00,
2013-02-16 18:01:00,69.0,21.0,29.99,NNW,345,1.0,1.0,16,0.00,NA,NA,-99.99,VWS Version 10.39,2013-02-17 02:01:00,
2013-02-16 18:06:00,68.5,20.6,29.99,NNE,22,3.0,3.0,16,0.00,NA,NA,-99.99,VWS Version 10.39,2013-02-17 02:06:00,
2013-02-16 18:11:00,68.1,21.7,29.99,NNE,33,1.0,2.0,17,0.00,NA,NA,-99.99,VWS Version 10.39,2013-02-17 02:11:00,
2013-02-16 18:16:00,67.9,21.5,29.99,NE,34,0.0,1.0,17,0.00,NA,NA,-99.99,VWS Version 10.39,2013-02-17 02:16:00,
2013-02-16 18:21:00,67.6,21.3,29.99,NE,42,1.0,2.0,17,0.00,NA,NA,-99.99,VWS Version 10.39,2013-02-17 02:21:00,
2013-02-16 18:26:00,67.8,21.4,29.99,North,5,2.0,2.0,17,0.00,NA,NA,-99.99,VWS Version 10.39,2013-02-17 02:26:00,
2013-02-16 18:31:00,67.6,21.3,29.99,NNE,28,2.0,2.0,17,0.00,NA,NA,-99.99,VWS Version 10.39,2013-02-17 02:31:00,
2013-02-16 18:36:00,67.3,21.0,29.99,NE,37,0.0,1.0,17,0.00,NA,NA,-99.99,VWS Version 10.39,2013-02-17 02:36:00,
2013-02-16 18:41:00,66.9,22.0,29.99,NE,49,1.0,2.0,18,0.00,NA,NA,-99.99,VWS Version 10.39,2013-02-17 02:41:00,
2013-02-16 18:46:00,66.6,21.8,29.99,ENE,63,2.0,3.0,18,0.00,NA,NA,-99.99,VWS Version 10.39,2013-02-17 02:46:00,
2013-02-16 18:51:00,66.7,21.9,29.99,ENE,63,1.0,2.0,18,0.00,NA,NA,-99.99,VWS Version 10.39,2013-02-17 02:51:00,
2013-02-16 18:56:00,66.6,21.8,29.99,ENE,63,0.0,1.0,18,0.00,NA,NA,-99.99,VWS Version 10.39,2013-02-17 02:56:00,
2013-02-16 19:01:00,66.6,21.8,29.99,ENE,63,2.0,2.0,18,0.00,NA,NA,-99.99,VWS Version 10.39,2013-02-17 03:01:00,
2013-02-16 19:06:00,66.6,21.8,29.99,ENE,63,1.0,2.0,18,0.00,NA,NA,-99.99,VWS Version 10.39,2013-02-17 03:06:00,
2013-02-16 19:11:00,66.6,21.8,29.99,ENE,63,1.0,1.0,18,0.00,NA,NA,-99.99,VWS Version 10.39,2013-02-17 03:11:00,
2013-02-16 19:16:00,66.6,20.5,29.99,ENE,63,2.0,2.0,17,0.00,NA,NA,-99.99,VWS Version 10.39,2013-02-17 03:16:00,
2013-02-16 19:21:00,66.6,23.1,29.99,ENE,63,1.0,1.0,19,0.00,NA,NA,-99.99,VWS Version 10.39,2013-02-17 03:21:00,
2013-02-16 19:31:00,66.1,21.4,29.98,East,81,3.0,3.0,18,0.00,NA,NA,-99.99,VWS Version 10.39,2013-02-17 03:31:00,
2013-02-16 19:36:00,66.0,22.6,29.98,East,85,2.0,2.0,19,0.00,NA,NA,-99.99,VWS Version 10.39,2013-02-17 03:36:00,
2013-02-16 19:41:00,65.6,22.3,29.98,ENE,58,3.0,5.0,19,0.00,NA,NA,-99.99,VWS Version 10.39,2013-02-17 03:41:00,
2013-02-16 19:46:00,65.4,22.1,29.98,NE,37,5.0,6.0,19,0.00,NA,NA,-99.99,VWS Version 10.39,2013-02-17 03:46:00,
2013-02-16 19:51:00,65.4,22.1,29.98,NE,53,5.0,5.0,19,0.00,NA,NA,-99.99,VWS Version 10.39,2013-02-17 03:51:00,
2013-02-16 19:56:00,65.4,22.1,29.98,NE,50,3.0,3.0,19,0.00,NA,NA,-99.99,VWS Version 10.39,2013-02-17 03:56:00,
2013-02-16 20:01:00,65.2,25.4,29.98,North,355,1.0,2.0,22,0.00,NA,NA,-99.99,VWS Version 10.39,2013-02-17 04:01:00,
2013-02-16 20:11:00,62.4,24.1,29.98,WNW,287,1.0,1.0,23,0.00,NA,NA,-99.99,VWS Version 10.39,2013-02-17 04:11:00,
2013-02-16 20:16:00,62.2,22.9,29.98,WNW,287,0.0,0.0,22,0.00,NA,NA,-99.99,VWS Version 10.39,2013-02-17 04:16:00,
2013-02-16 20:21:00,62.3,23.0,29.98,WNW,287,1.0,1.0,22,0.00,NA,NA,-99.99,VWS Version 10.39,2013-02-17 04:21:00,
2013-02-16 20:26:00,62.3,25.1,29.98,East,88,1.0,2.0,24,0.00,NA,NA,-99.99,VWS Version 10.39,2013-02-17 04:26:00,
2013-02-16 20:36:00,61.6,24.5,29.98,East,88,0.0,1.0,24,0.00,NA,NA,-99.99,VWS Version 10.39,2013-02-17 04:36:00,
2013-02-16 20:41:00,62.4,23.1,29.98,NE,44,1.0,1.0,22,0.00,NA,NA,-99.99,VWS Version 10.39,2013-02-17 04:41:00,
2013-02-16 20:46:00,63.2,23.8,29.98,NE,44,1.0,1.0,22,0.00,NA,NA,-99.99,VWS Version 10.39,2013-02-17 04:46:00,
2013-02-16 21:01:00,62.7,24.4,29.99,ENE,66,0.0,0.0,23,0.00,NA,NA,-99.99,VWS Version 10.39,2013-02-17 05:01:00,
2013-02-16 21:11:00,61.8,25.6,29.99,ENE,66,0.0,0.0,25,0.00,NA,NA,-99.99,VWS Version 10.39,2013-02-17 05:11:00,
2013-02-16 21:16:00,61.3,24.2,29.99,NE,55,3.0,4.0,24,0.00,NA,NA,-99.99,VWS Version 10.39,2013-02-17 05:16:00,
2013-02-16 21:21:00,61.0,25.0,29.99,NE,34,2.0,3.0,25,0.00,NA,NA,-99.99,VWS Version 10.39,2013-02-17 05:21:00,
2013-02-16 21:26:00,60.5,25.5,29.99,NE,46,2.0,3.0,26,0.00,NA,NA,-99.99,VWS Version 10.39,2013-02-17 05:26:00,
2013-02-16 21:31:00,59.7,24.8,29.99,NE,46,3.0,3.0,26,0.00,NA,NA,-99.99,VWS Version 10.39,2013-02-17 05:31:00,
2013-02-16 21:36:00,59.3,25.4,29.99,NE,53,2.0,2.0,27,0.00,NA,NA,-99.99,VWS Version 10.39,2013-02-17 05:36:00,
2013-02-16 21:41:00,59.1,26.0,29.99,ENE,58,2.0,3.0,28,0.00,NA,NA,-99.99,VWS Version 10.39,2013-02-17 05:41:00,
2013-02-16 21:46:00,58.9,25.9,29.99,ENE,59,2.0,2.0,28,0.00,NA,NA,-99.99,VWS Version 10.39,2013-02-17 05:46:00,
2013-02-16 21:51:00,59.0,26.0,29.99,ENE,59,0.0,1.0,28,0.00,NA,NA,-99.99,VWS Version 10.39,2013-02-17 05:51:00,
2013-02-16 21:56:00,59.0,25.1,29.98,ENE,59,1.0,1.0,27,0.00,NA,NA,-99.99,VWS Version 10.39,2013-02-17 05:56:00,
2013-02-16 22:01:00,59.1,25.2,29.98,ENE,59,0.0,1.0,27,0.00,NA,NA,-99.99,VWS Version 10.39,2013-02-17 06:01:00,
2013-02-16 22:06:00,59.5,24.6,29.98,ENE,59,0.0,0.0,26,0.00,NA,NA,-99.99,VWS Version 10.39,2013-02-17 06:06:00,
2013-02-16 22:11:00,59.6,24.7,29.98,ENE,59,1.0,2.0,26,0.00,NA,NA,-99.99,VWS Version 10.39,2013-02-17 06:11:00,
2013-02-16 22:16:00,59.5,24.6,29.98,ENE,59,2.0,2.0,26,0.00,NA,NA,-99.99,VWS Version 10.39,2013-02-17 06:16:00,
2013-02-16 22:21:00,59.4,24.5,29.98,ENE,59,2.0,2.0,26,0.00,NA,NA,-99.99,VWS Version 10.39,2013-02-17 06:21:00,
2013-02-16 22:26:00,59.6,24.7,29.98,ENE,59,2.0,2.0,26,0.00,NA,NA,-99.99,VWS Version 10.39,2013-02-17 06:26:00,
2013-02-16 22:31:00,59.3,23.5,29.98,NE,52,2.0,3.0,25,0.00,NA,NA,-99.99,VWS Version 10.39,2013-02-17 06:31:00,
2013-02-16 22:36:00,59.5,24.6,29.98,NE,52,2.0,2.0,26,0.00,NA,NA,-99.99,VWS Version 10.39,2013-02-17 06:36:00,
2013-02-16 22:41:00,59.2,26.1,29.98,NE,52,1.0,1.0,28,0.00,NA,NA,-99.99,VWS Version 10.39,2013-02-17 06:41:00,
2013-02-16 22:46:00,57.8,26.6,29.98,North,355,2.0,3.0,30,0.00,NA,NA,-99.99,VWS Version 10.39,2013-02-17 06:46:00,
2013-02-16 22:51:00,56.6,27.9,29.98,North,355,0.0,0.0,33,0.00,NA,NA,-99.99,VWS Version 10.39,2013-02-17 06:51:00,
2013-02-16 22:56:00,55.6,30.4,29.98,WNW,292,3.0,3.0,38,0.00,NA,NA,-99.99,VWS Version 10.39,2013-02-17 06:56:00,
2013-02-16 23:01:00,55.5,34.5,29.98,NW,313,1.0,1.0,45,0.00,NA,NA,-99.99,VWS Version 10.39,2013-02-17 07:01:00,
2013-02-16 23:06:00,55.3,34.3,29.98,NW,313,1.0,2.0,45,0.00,NA,NA,-99.99,VWS Version 10.39,2013-02-17 07:06:00,
2013-02-16 23:11:00,55.2,33.7,29.98,NW,313,0.0,0.0,44,0.00,NA,NA,-99.99,VWS Version 10.39,2013-02-17 07:11:00,
2013-02-16 23:16:00,55.1,33.0,29.98,NW,313,0.0,0.0,43,0.00,NA,NA,-99.99,VWS Version 10.39,2013-02-17 07:16:00,
2013-02-16 23:21:00,54.8,31.6,29.99,NW,313,1.0,1.0,41,0.00,NA,NA,-99.99,VWS Version 10.39,2013-02-17 07:21:00,
2013-02-16 23:26:00,54.6,32.0,29.98,NW,313,0.0,0.0,42,0.00,NA,NA,-99.99,VWS Version 10.39,2013-02-17 07:26:00,
2013-02-16 23:31:00,54.5,31.9,29.98,NW,313,0.0,0.0,42,0.00,NA,NA,-99.99,VWS Version 10.39,2013-02-17 07:31:00,
2013-02-16 23:36:00,54.4,31.2,29.99,NW,313,0.0,1.0,41,0.00,NA,NA,-99.99,VWS Version 10.39,2013-02-17 07:36:00,
2013-02-16 23:41:00,54.2,31.0,29.98,NE,53,3.0,3.0,41,0.00,NA,NA,-99.99,VWS Version 10.39,2013-02-17 07:41:00,
2013-02-16 23:46:00,54.3,31.1,29.98,ENE,65,2.0,3.0,41,0.00,NA,NA,-99.99,VWS Version 10.39,2013-02-17 07:46:00,
2013-02-16 23:51:00,54.5,31.9,29.98,East,93,3.0,6.0,42,0.00,NA,NA,-99.99,VWS Version 10.39,2013-02-17 07:51:00,
2013-02-16 23:56:00,54.8,32.2,29.98,East,85,3.0,6.0,42,0.00,NA,NA,-99.99,VWS Version 10.39,2013-02-17 07:56:00,